Weather in Krasnoglinnoye

Russia / Novosibirsk Oblast     54°58′28″N   82°42′07″E
temp.,
°C
wind,
m/s
gust,
m/s
humid.,
%
clouds,
%
prec.,
mm/h
press.,
hPa
HPBL,
m
18 january, mon
mon1801:00−11ssw6139390 0.1 1015313
04:00−9ssw71688100 0.0 1012478
07:00−8ssw71585100 0.0 1010636
10:00−8sw51292100 0.4 1009519
13:00−8sw61290100 0.4 1009775
16:00−9wsw61287100 0.1 1010732
19:00−14wsw51292100 0.1 1013427
22:00−17w5129498 0.0 1016331
19 january, tue
tue1901:00−21w489573 0.0 1019131
04:00−24sw34975 0.0 102138
07:00−25sw34966 0.0 102235
10:00−25sw34967 0.0 102343
13:00−21sw37938 0.0 1023269
16:00−20sw379476 0.0 1023268
19:00−24wsw339449 0.0 102420
22:00−26w23970 0.0 102519
20 january, wed
wed2001:00−29wnw229918 0.0 102719
04:00−30nw12990 0.0 102819
07:00−32nne111000 0.0 103019
10:00−32e11960 0.0 103119
13:00−26ene11870 0.0 1032134
16:00−24ne129044 0.0 103067
19:00−27ene338971 0.0 103022
22:00−26ene238599 0.0 102822
21 january, thu
thu2101:00−24ene338599 0.0 102666
04:00−20ene3682100 0.0 1023147
07:00−18ene3497100 1.3 1021145
10:00−17ene1297100 0.6 101927
13:00−14sw2394100 0.6 1018195
16:00−14ssw3694100 0.0 1017234
19:00−14ssw3695100 0.1 1016153
22:00−14ssw2395100 0.0 101380
22 january, fri
fri2201:00−14ssw2495100 0.0 1011119
04:00−16sw3395100 0.0 100936
07:00−18sw499694 0.0 1009194
10:00−22wsw5119587 0.0 1012302
13:00−22wsw5109166 0.0 1014358
16:00−21sw410915 0.0 1015357
19:00−24sw489325 0.0 1016169
22:00−25ssw489492 0.0 1018203